CW0677 Weather Reports


Display with metric or nautical units.
time (UTC)temp
F
wind
direction
speed
MPH
gust
MPH
rain 1hr
in
rain 24hr
in
rain mn
in
humidity
%
barometer
mb
20260901161600 61 0 0.0 7.0 0.00 0.00 0.00 85 1015.5
20260901160106 62 311 6.0 11.0 0.00 0.00 0.00 84 1015.5
20260901154607 62 343 3.0 8.0 0.00 0.00 0.00 84 1015.4
20260901153105 62 10 1.0 4.0 0.00 0.00 0.00 85 1015.2
20260901151603 61 0 0.0 4.0 0.00 0.00 0.00 87 1015.0
20260901150116 61 239 0.0 2.0 0.00 0.00 0.00 89 1014.9
20260901144608 60 0 1.0 3.0 0.00 0.00 0.00 89 1014.7
20260901143109 60 0 1.0 3.0 0.00 0.00 0.00 90 1014.5
20260901141604 59 0 0.0 1.0 0.00 0.00 0.00 90 1014.3
20260901140110 59 0 0.0 2.0 0.00 0.00 0.00 89 1014.1
20260901134629 59 219 1.0 3.0 0.00 0.00 0.00 89 1013.9
20260901133102 59 0 0.0 3.0 0.00 0.00 0.00 89 1013.8
20260901131603 59 0 0.0 3.0 0.00 0.00 0.00 88 1013.6
20260901130110 58 241 0.0 0.0 0.00 0.00 0.00 88 1013.5
20260901124608 58 0 0.0 2.0 0.00 0.00 0.00 89 1013.4
20260901123105 57 0 0.0 2.0 0.00 0.00 0.00 88 1013.3
20260901121604 57 217 0.0 3.0 0.00 0.00 0.00 88 1013.3
20260901120108 57 0 0.0 0.0 0.00 0.00 0.00 88 1013.2
20260901114622 57 0 0.0 0.0 0.00 0.00 0.00 89 1013.2
20260901113142 57 0 0.0 0.0 0.00 0.00 0.00 89 1013.2
20260901111603 57 0 0.0 0.0 0.00 0.00 0.00 89 1013.5
20260901110108 57 0 0.0 0.0 0.00 0.00 0.00 89 1013.7
20260901104606 57 247 2.0 4.0 0.00 0.00 0.00 90 1013.9
20260901103105 57 249 0.0 2.0 0.00 0.00 0.00 91 1013.7
20260901101615 57 0 0.0 2.0 0.00 0.00 0.00 91 1013.6
20260901100120 56 0 0.0 3.0 0.00 0.00 0.00 91 1013.5
20260901094601 56 0 0.0 3.0 0.00 0.00 0.00 91 1013.4
20260901093102 56 205 0.0 2.0 0.00 0.00 0.00 90 1013.5
20260901091606 56 0 0.0 2.0 0.00 0.00 0.00 90 1013.3
20260901090109 56 0 0.0 0.0 0.00 0.00 0.00 89 1013.3
20260901084606 56 0 0.0 0.0 0.00 0.00 0.00 89 1013.4
20260901083106 56 0 0.0 0.0 0.00 0.00 0.00 89 1013.3
20260901081617 56 0 0.0 0.0 0.00 0.00 0.00 89 1013.3
20260901074607 57 0 0.0 0.0 0.00 0.00 0.00 88 1013.1
20260901073106 57 0 0.0 0.0 0.00 0.00 0.00 88 1013.0
20260901071604 57 0 0.0 0.0 0.00 0.00 0.00 88 1013.0
20260901070110 58 0 0.0 0.0 0.00 0.00 0.00 87 1013.0
20260901064606 58 0 0.0 0.0 0.00 0.00 0.00 87 1013.1
20260901063105 58 0 0.0 0.0 0.00 0.00 0.00 87 1013.0
20260901061611 58 0 0.0 0.0 0.00 0.00 0.00 86 1013.1
20260901060112 59 0 0.0 0.0 0.00 0.00 0.00 86 1013.1
20260901054601 59 0 0.0 3.0 0.00 0.00 0.00 85 1013.1
20260901053126 59 0 0.0 3.0 0.00 0.00 0.00 85 1013.3
20260901051609 60 0 0.0 2.0 0.00 0.00 0.00 85 1013.3
20260901050108 60 0 0.0 0.0 0.00 0.00 0.00 84 1013.3
20260901044634 60 0 0.0 3.0 0.00 0.00 0.00 84 1013.3
20260901043108 60 0 0.0 3.0 0.00 0.00 0.00 84 1013.2
20260901041605 60 199 0.0 4.0 0.00 0.00 0.00 84 1013.0
20260901040105 61 251 3.0 7.0 0.00 0.00 0.00 83 1012.8
20260901034607 61 229 2.0 7.0 0.00 0.00 0.00 83 1012.6
20260901033107 61 253 1.0 7.0 0.00 0.00 0.00 82 1012.5
20260901031605 61 180 2.0 7.0 0.00 0.00 0.00 81 1012.5
20260901030104 62 205 2.0 7.0 0.00 0.00 0.00 80 1012.4
20260901024606 62 192 3.0 8.0 0.00 0.00 0.00 79 1012.3
20260901023107 63 250 4.0 10.0 0.00 0.00 0.00 77 1012.2
20260901021636 64 180 3.0 9.0 0.00 0.00 0.00 75 1012.1
20260901020114 65 265 5.0 14.0 0.00 0.00 0.00 74 1012.2
20260901014605 66 283 6.0 11.0 0.00 0.00 0.00 72 1012.0
20260901013107 67 255 7.0 13.0 0.00 0.00 0.00 70 1012.1
20260901011603 69 257 4.0 16.0 0.00 0.00 0.00 67 1012.0
20260901010101 69 215 4.0 12.0 0.00 0.00 0.00 67 1011.9
20260901004605 70 223 6.0 14.0 0.00 0.00 0.00 65 1011.9
20260901003124 71 272 4.0 16.0 0.00 0.00 0.00 64 1011.9
20260901001612 72 273 3.0 13.0 0.00 0.00 0.00 63 1011.8
20260901000116 73 273 3.0 9.0 0.00 0.00 0.00 61 1011.8
20260831234610 72 180 3.0 12.0 0.00 0.00 0.00 64 1011.8
20260831233102 72 240 2.0 10.0 0.00 0.00 0.00 63 1011.9
20260831231608 72 252 4.0 13.0 0.00 0.00 0.00 63 1012.0
20260831230107 72 232 5.0 12.0 0.00 0.00 0.00 63 1011.9
20260831224606 73 215 4.0 10.0 0.00 0.00 0.00 63 1011.8
20260831223110 72 310 4.0 10.0 0.00 0.00 0.00 64 1012.3
20260831221603 72 130 4.0 11.0 0.00 0.00 0.00 63 1012.4
20260831220117 72 205 4.0 11.0 0.00 0.00 0.00 63 1012.5
20260831214606 71 159 4.0 9.0 0.00 0.00 0.00 63 1012.7
20260831213109 71 213 6.0 14.0 0.00 0.00 0.00 63 1012.8
20260831211612 71 236 8.0 13.0 0.00 0.00 0.00 65 1013.0
20260831210104 70 246 6.0 12.0 0.00 0.00 0.00 66 1013.1
20260831204608 68 188 3.0 10.0 0.00 0.00 0.00 68 1013.1
20260831203103 68 185 3.0 9.0 0.00 0.00 0.00 69 1013.3
20260831201604 67 285 3.0 9.0 0.00 0.00 0.00 71 1013.4
20260831194636 65 175 2.0 6.0 0.00 0.00 0.00 75 1013.8
20260831193106 63 220 4.0 8.0 0.00 0.00 0.00 78 1013.8
20260831191605 61 202 2.0 6.0 0.00 0.00 0.00 80 1013.9
20260831190120 61 177 1.0 7.0 0.00 0.00 0.00 80 1014.0
20260831184634 60 177 2.0 4.0 0.00 0.00 0.00 81 1014.1
20260831183108 59 222 2.0 7.0 0.00 0.00 0.00 82 1014.2
20260831181606 59 239 2.0 6.0 0.00 0.00 0.00 82 1014.1
20260831180112 59 254 2.0 6.0 0.00 0.00 0.00 83 1014.1
20260831174608 58 254 2.0 4.0 0.00 0.00 0.00 84 1013.9
20260831173106 58 213 1.0 6.0 0.00 0.00 0.00 85 1013.9
20260831171606 57 92 0.0 3.0 0.00 0.00 0.00 85 1013.8
20260831164603 56 335 0.0 2.0 0.00 0.00 0.00 86 1013.6
20260831163104 56 114 1.0 5.0 0.00 0.00 0.00 87 1013.7